Location: Focicchia
(42.2496°N, 9.2935°E)
Time: 09:39:24
(UTC+00:00)

Cosmos 2360 Rocket - Pass Details

Date: 07 June 2020
Orbit: 832 x 846 km, 71.0° (Epoch: 07 July)

Event Time Altitude Azimuth Distance (km) Brightness Sun altitude
Exits shadow 00:43:43 13° 132° (SE) 2,200 4.1 -22.3°
Maximum altitude 00:46:24 19° 99° (E) 1,915 4.2 -22.1°
Drops below altitude 10° 00:50:08 10° 57° (ENE) 2,455 5.4 -21.8°
Sets 00:53:17 0° 40° (NE) 3,398 6.6 -21.6°
